{"data":{"norad_id":64925,"epoch":"2026-05-24T23:27:43.792416Z","epoch_age_seconds":76901,"freshness":"FRESH","line1":"1 64925U 25157X   26144.97759019  .00029692  00000+0  10106-2 0  9997","line2":"2 64925  53.1611 351.3268 0001122  93.9996 266.1133 15.30200778 47808","mean_motion":15.30200778,"eccentricity":0.0001122,"inclination_deg":53.1611,"raan_deg":351.3268,"arg_perigee_deg":93.9996,"mean_anomaly_deg":266.1133,"bstar":0.0010106,"rev_number":4780,"period_min":94.105297860462,"perigee_km":474.44380061099,"apogee_km":475.9816922941,"semimajor_km":6853.3497464525,"source":"CELESTRAK","updated_at":"2026-05-25T13:38:20.625509Z"}}